Regional Weather Roundup
Issued by NWS Green Bay, WI

Home | Current Version | Previous Version | Text Only | Print | Product List | Glossary On
Versions: 1 2 3 4 5 6 7 8 9 10 11 12 13 14 15 16 17 18 19 20 21 22 23 24 25 26 27 28 29 30 31 32 33 34 35 36 37 38 39 40 41 42 43 44 45 46 47 48 49 50
000
ASUS43 KGRB 192010
RWRGRB

NORTH-CENTRAL AND NORTHEAST WISCONSIN REGIONAL WEATHER ROUNDUP
NATIONAL WEATHER SERVICE GREEN BAY WI
300 PM CDT FRI SEP 19 2014

WIZ005-009-010>012-018-019-192100-
NORTH CENTRAL WISCONSIN

CITY           SKY/WX    TMP DP  RH WIND       PRES   REMARKS
IRONWOOD       CLOUDY    66  54  63 S9G28     29.70F
MANITOWISH WTR   N/A     65  53  64 S15G26    29.77F
ARBOR VITAE    PTSUNNY   69  54  58 S20G29    29.80F
EAGLE RIVER    CLOUDY    66  49  53 S14G25    29.81F
LAND O LAKES   CLOUDY    66  50  55 SW16G32   29.80F
RHINELANDER    CLOUDY    67  52  58 S20G28    29.83S
PHILLIPS       CLOUDY    67  55  63 S16G23    29.77F
ANTIGO         PTSUNNY   66  53  62 S20G26    29.87F
TOMAHAWK       PTSUNNY   68  54  60 S7        29.83F
MERRILL        PTSUNNY   70  54  57 S17G29    29.85F
$$

WIZ013-073-192100-
NORTHEAST WISCONSIN

CITY           SKY/WX    TMP DP  RH WIND       PRES   REMARKS
IRON MOUNTAIN  PTSUNNY   66  50  56 S21G30    29.81F
MARINETTE      PTSUNNY   70  54  56 S17G23    29.89F
OCONTO         MOSUNNY   73  52  47 S16G26    29.89F
$$

WIZ017-030-035>037-045-192100-
CENTRAL WISCONSIN

CITY           SKY/WX    TMP DP  RH WIND       PRES   REMARKS
MEDFORD        PTSUNNY   68  54  59 S25G35    29.82F
WAUSAU         PTSUNNY   70  52  52 S22G36    29.86F
MOSINEE        SUNNY     68  52  56 S23G32    29.88F
MARSHFIELD     PTSUNNY   71  54  54 S24G32    29.85F
WISC RAPIDS    MOSUNNY   72  52  49 S23G36    29.89F
STEVENS POINT  MOSUNNY   70  51  51 S26G32    29.88F
WAUPACA        MOSUNNY   73  53  48 S16G23    29.91F
SHAWANO        PTSUNNY   73  51  46 S14G22    29.90F
CLINTONVILLE   MOSUNNY   72  50  46 S21G28    29.90F
$$

WIZ038-039-048-051-192100-
FOX VALLEY

CITY           SKY/WX    TMP DP  RH WIND       PRES   REMARKS
NWS GREEN BAY  MOSUNNY   72  50  45 S20G32    29.92F
APPLETON       PTSUNNY   72  48  43 S20G26    29.93F
OSHKOSH        SUNNY     73  51  46 SW17G29   29.94F
FOND DU LAC    SUNNY     73  49  42 S21G33    29.95F
$$

WIZ022-050-052-192100-
EAST CENTRAL WISCONSIN

CITY           SKY/WX    TMP DP  RH WIND       PRES   REMARKS
STURGEON BAY   PTSUNNY   63  55  77 S23G31    29.94F
MANITOWOC      MOSUNNY   64  57  78 S23G31    29.97F
SHEBOYGAN      SUNNY     70  55  59 S14G24    29.98F
$$

LMZ563-521-522-541>543-192100-
LAKESHORE

STATION/POSITION TIME  TEMP    WIND        PRES    VSBY  WAVE
                       AIR SEA DIR/SP/G                  HT/PER
                 (UTC) (F)     (DEG/KT/KT) (MB)    (MI)  (FT/S)
SHEBOYGAN LKSHOR 2000   57 54  180/ 17/ 20 1015.6F
KEWAUNEE LKSHORE 2000   57     180/ 15/ 18 1014.2F
NORTHPORT PIER   2000   59     160/ 12/ 23 1013.9F
N MID LAKE BUOY  2000   60 58  190/ 25/ 29 1013.7F         6/ 7
S GREEN BAY BUOY 1900   65     VRB 14/ 16  1015.0F
CHAMBERS ISLAND  2000   63     150/ 10/ 18 1013.2F
MENOMINEE LKSHOR 2000   63     160/ 15/ 19 1013.4F
$$


USA.gov is the U.S. government's official web portal to all federal, state and local government web resources and services.